RH
49 46 42 39 39 40 39 39 39 37 32 28 27 25 25 28 29 25 23 22 21 21 23 23 25 26 23 22 24 26 26 25 24 23 22 21 19 19 20 20 19 19 18 18 20 23 24 24 25 25 25 25 28 34 39 42 45 50 54 56 56 57 59
50 47 44 41 41 41 41 40 39 34 28 25 24 23 23 26 27 24 22 23 21 19 21 22 23 25 24 22 22 25 26 25 23 21 19 19 18 20 21 20 20 20 19 20 22 24 24 25 25 25 25 25 25 30 35 38 41 44 48 53 56 58 58
50 49 46 43 43 42 40 41 38 32 27 25 23 21 22 23 24 24 23 24 23 19 18 20 24 25 23 21 20 21 21 20 19 17 15 16 17 18 18 18 20 21 21 21 21 23 24 24 25 25 26 25 26 28 31 33 34 34 37 43 49 52 55
50 50 47 45 43 42 41 41 37 30 25 23 22 22 23 23 24 24 24 24 23 22 20 20 24 26 25 20 17 16 16 15 15 14 14 16 18 19 19 17 17 18 19 20 21 24 26 26 26 26 26 26 26 26 27 28 27 27 29 34 39 43 46
49 49 47 45 44 42 42 40 33 26 22 21 21 23 23 23 24 25 24 24 24 24 23 22 24 26 24 21 18 15 14 13 13 13 14 16 17 19 21 20 19 18 17 19 22 25 26 26 26 26 26 25 25 24 24 25 24 24 25 28 31 34 37
49 48 46 44 42 41 41 38 30 24 22 21 21 24 24 23 24 24 24 25 24 23 23 23 24 24 22 20 18 15 14 14 13 13 15 18 19 21 23 23 23 21 21 22 24 25 25 25 25 25 24 23 22 24 25 25 26 25 26 27 26 25 28
49 48 46 43 41 41 41 36 29 25 24 23 22 25 26 26 26 25 24 24 23 23 23 23 22 22 21 20 17 15 14 14 14 16 18 21 22 24 26 26 25 25 25 25 26 26 26 24 24 24 23 23 24 26 28 28 29 29 29 29 26 23 24
48 46 45 42 41 42 39 33 27 25 25 24 24 25 28 30 28 24 22 21 20 21 22 22 22 23 22 20 16 15 15 16 17 19 22 24 26 26 26 27 27 27 27 26 26 27 26 25 24 23 23 23 24 26 28 28 29 28 28 28 25 24 24
46 46 45 42 41 40 37 33 30 28 27 25 25 26 28 31 30 25 22 21 19 21 23 23 24 23 21 18 16 17 18 18 20 22 24 27 28 27 27 26 26 27 26 26 26 26 25 25 24 23 23 23 23 24 25 25 26 26 25 24 23 23 25
45 45 45 42 41 39 37 37 37 36 33 28 25 27 30 32 30 27 25 24 20 21 23 23 22 20 19 18 18 20 20 21 22 24 26 27 27 27 26 25 24 25 24 25 25 25 25 25 24 23 23 24 24 24 24 24 25 24 24 23 22 23 24
44 44 43 42 42 41 40 42 43 42 38 32 28 29 31 32 30 27 25 24 21 21 23 23 22 21 20 20 21 22 23 24 26 26 27 27 26 26 25 24 24 23 23 23 24 24 24 24 24 24 24 24 24 25 25 25 25 25 26 25 24 23 23
41 42 43 43 43 42 41 43 44 43 41 37 31 30 31 30 29 26 24 23 23 25 27 26 25 23 22 22 23 23 24 27 29 29 28 28 27 26 26 25 25 23 23 22 23 23 23 24 24 24 24 24 24 24 25 25 26 27 27 26 26 24 24
40 41 42 42 43 42 41 42 43 43 42 38 34 31 30 29 27 25 25 24 24 27 28 27 25 23 23 23 24 25 27 30 31 30 29 29 28 28 28 27 26 25 24 23 24 23 23 24 23 23 24 25 25 24 24 25 26 27 27 27 27 26 25
40 41 41 41 41 40 41 43 43 43 43 41 37 32 28 27 26 26 26 26 26 27 26 25 24 24 24 25 26 29 32 34 32 30 30 30 30 30 29 28 27 25 25 25 24 25 24 24 24 24 24 24 25 25 26 26 27 28 28 28 29 28 28
40 40 40 40 40 39 41 43 44 44 45 42 38 33 28 27 27 27 28 27 26 26 25 25 26 27 27 27 28 33 37 37 35 31 30 30 30 30 29 27 26 25 24 24 24 25 26 25 25 24 24 24 25 26 27 28 28 28 29 29 30 31 30
41 40 40 40 40 41 42 44 45 45 43 40 36 33 32 32 30 28 28 27 26 27 28 29 31 33 32 30 32 36 39 39 37 34 31 29 29 29 28 27 25 23 23 24 25 25 26 26 26 25 25 25 25 26 27 27 28 29 29 30 32 32 31
42 40 40 39 40 41 44 46 46 42 39 38 36 35 36 36 34 30 28 27 27 29 30 32 34 35 33 32 35 39 40 39 38 36 33 30 30 29 28 26 24 23 22 24 25 26 26 26 26 26 26 26 25 26 26 27 28 28 29 29 31 32 32
42 41 41 40 41 44 46 46 43 40 39 39 39 39 40 39 36 32 29 28 29 31 33 34 34 33 33 35 37 40 39 39 39 38 36 34 32 31 29 27 25 24 23 22 24 25 26 26 26 26 26 27 27 27 27 27 28 29 30 30 31 33 34
41 41 41 43 44 44 44 42 41 41 41 41 41 42 42 41 38 35 32 30 31 33 33 33 33 33 33 36 38 39 39 39 39 39 39 37 35 33 30 28 27 26 24 22 23 25 25 25 25 26 27 27 28 28 28 29 29 30 31 31 32 34 37
42 42 43 44 45 43 41 41 42 42 43 44 45 45 43 41 39 37 35 33 33 33 33 34 35 35 35 37 39 40 40 40 40 40 40 39 37 35 32 28 27 27 26 24 23 24 26 26 25 26 26 26 27 28 29 30 31 32 32 32 34 36 38
45 45 45 44 44 44 43 44 45 46 47 47 47 46 43 41 40 38 36 35 34 34 34 36 37 37 37 38 39 40 40 40 40 40 40 39 38 36 32 29 28 28 27 26 25 25 26 26 25 25 25 25 26 28 30 31 32 33 34 34 36 37 39
46 46 45 45 45 46 46 47 48 49 49 49 48 46 43 41 39 36 35 36 36 35 36 37 38 38 39 39 39 40 40 40 40 40 39 38 37 35 33 31 30 28 28 28 27 27 26 25 25 25 24 25 26 28 30 32 33 36 37 37 38 39 40
46 45 46 47 48 48 49 49 50 49 50 49 46 43 42 40 37 34 34 35 35 34 36 38 39 40 40 40 40 41 41 41 40 40 39 37 36 35 33 31 30 29 29 29 29 28 28 28 27 27 26 26 26 27 29 31 35 38 39 40 40 41 41
47 48 48 48 48 49 49 50 50 50 49 46 43 42 41 38 36 35 34 33 33 35 36 38 41 41 41 41 41 41 41 41 40 39 38 37 36 35 33 31 30 30 29 30 30 29 29 29 30 30 30 28 26 27 29 30 34 38 40 41 42 42 43
48 48 48 48 48 49 50 50 49 48 46 44 43 42 39 35 33 33 33 33 36 37 37 39 42 43 43 42 42 41 41 40 39 39 39 38 37 35 33 32 31 31 31 31 31 30 30 30 31 31 32 30 28 27 29 30 32 35 37 40 42 43 43
48 49 49 50 49 49 49 49 48 46 45 44 42 39 36 33 32 32 35 37 39 38 38 41 43 43 42 42 40 40 39 39 39 39 39 38 37 34 33 32 31 31 31 32 31 32 32 32 32 32 32 31 31 31 30 30 30 31 34 38 40 41 43
48 49 49 49 48 47 47 46 45 43 43 42 39 35 33 31 33 37 39 39 40 40 40 41 41 42 41 40 39 39 39 39 39 39 39 38 36 34 32 32 32 32 32 32 32 32 32 32 32 31 32 32 33 33 32 31 30 30 33 37 39 40 41
47 47 46 46 44 44 43 43 43 42 41 38 35 33 33 34 37 40 40 40 41 41 40 40 40 40 39 38 38 39 38 38 38 39 39 36 34 32 31 32 33 33 33 33 33 32 32 31 31 30 30 30 31 32 32 31 29 29 30 33 35 36 38
42 41 42 42 43 43 43 44 43 40 38 35 34 36 37 37 38 39 40 41 42 41 41 41 40 39 39 39 38 37 36 36 36 37 37 34 33 32 32 33 33 33 32 32 32 33 32 31 31 30 30 29 28 29 30 29 29 28 28 29 31 33 36
38 40 40 42 43 44 44 43 41 38 37 37 37 37 37 36 38 39 41 41 41 40 40 40 39 39 38 37 35 35 35 35 36 37 36 34 33 33 33 33 33 32 31 31 31 32 31 31 31 31 31 30 29 28 29 29 30 29 28 29 32 35 38
42 42 42 42 42 42 41 39 37 37 38 38 37 37 38 39 40 41 40 39 39 39 40 39 39 38 37 36 36 36 35 34 35 36 35 34 34 34 34 34 33 32 31 31 31 32 32 32 32 32 32 32 31 30 31 32 32 31 30 30 31 34 36
39 39 40 40 39 38 37 37 36 36 36 36 36 38 41 43 42 40 38 38 39 40 40 38 38 37 37 37 36 35 34 35 35 35 35 35 35 36 35 34 33 32 32 32 32 33 33 34 34 34 34 33 32 32 32 33 34 34 34 32 32 32 33
38 39 40 39 38 37 37 37 38 37 35 35 38 42 43 43 42 40 39 39 40 40 39 38 38 38 37 36 35 34 34 35 35 36 36 37 36 35 34 34 35 35 36 36 36 36 36 36 36 36 36 35 34 33 33 34 35 35 35 35 34 33 33
40 41 40 39 38 36 35 36 36 35 35 37 41 43 43 42 41 39 40 41 41 40 38 39 38 36 35 34 34 34 34 35 36 37 36 35 34 33 35 37 39 41 42 43 43 42 41 40 41 41 41 40 39 38 37 36 36 36 36 36 35 34 34
36 34 34 34 32 31 31 32 34 35 38 41 42 42 41 40 40 40 42 42 41 40 39 39 37 34 35 34 34 35 35 35 36 36 35 33 32 34 39 42 43 46 47 48 49 49 49 47 47 48 48 48 48 48 46 43 41 40 39 38 37 37 37
31 29 28 28 28 30 33 36 38 40 41 41 41 40 40 39 39 41 42 41 41 41 39 37 35 34 35 35 35 35 35 34 34 34 32 31 33 38 42 45 46 48 49 50 52 54 54 54 54 55 55 55 55 55 55 53 51 48 47 47 47 47 47
33 30 28 29 32 36 39 41 42 42 40 40 40 39 39 39 39 41 41 41 41 40 36 35 36 35 35 36 35 35 34 33 32 30 28 29 37 43 46 46 46 49 51 52 53 55 57 59 60 60 60 60 59 59 60 60 59 57 56 55 55 54 55
32 30 30 34 38 41 43 42 40 40 40 40 40 39 38 38 40 40 42 43 41 37 35 36 37 37 37 36 35 33 31 28 28 27 27 32 39 46 48 47 47 49 53 56 58 61 63 65 65 64 63 64 64 64 65 66 66 65 64 63 62 61 63